GFM8WT UTAA-OPSD

Flight info

Callsign GFM8WT
Flight time 3h 14m
Altitude 31000
Route URABA A117 LBA B376 MANAT/K0591F310 Z777 INDUD Q169 SOPNO A107 DBE B100 JD Z407 POMIR L181 AGVUT/K0594S0945 DCT PURPA/N0323F310 G325 GOTKO J155 DELDA J122 BIREB
Aircraft TBM9/L-SDFGRWY/S

Departure

Time 2026-05-01 07:52
Airport Ashgabat International Airport (UTAA)

Arrival

Time 2026-05-01 11:06
Airport Skardu International Airport (OPSD)
Time Latitude Longitude Altitude Speed Heading
2026-05-01 07:38 37.97492 58.37990 687 ft 0 kts 120°
2026-05-01 07:46 37.97492 58.37993 687 ft 0 kts 92°
2026-05-01 07:47 37.97501 58.37971 687 ft 0 kts 120°
2026-05-01 07:47 37.97501 58.37972 687 ft 0 kts 118°
2026-05-01 07:48 37.97518 58.37932 684 ft 9 kts 293°
2026-05-01 07:48 37.97551 58.37857 686 ft 7 kts 289°
2026-05-01 07:48 37.97517 58.37822 687 ft 7 kts 211°
2026-05-01 07:49 37.97470 58.37786 687 ft 9 kts 209°
2026-05-01 07:49 37.97435 58.37640 687 ft 11 kts 290°
2026-05-01 07:49 37.97469 58.37554 687 ft 10 kts 297°
2026-05-01 07:50 37.97487 58.37470 683 ft 11 kts 238°
2026-05-01 07:50 37.97355 58.37357 687 ft 12 kts 212°
2026-05-01 07:50 37.97336 58.37291 685 ft 3 kts 298°
2026-05-01 07:51 37.97428 58.37088 687 ft 58 kts 299°
2026-05-01 07:51 37.97732 58.36415 702 ft 113 kts 298°
2026-05-01 07:51 37.98149 58.35520 1175 ft 116 kts 299°
2026-05-01 07:52 37.98954 58.33624 2190 ft 129 kts 298°
2026-05-01 07:52 37.99383 58.32613 2754 ft 132 kts 299°
2026-05-01 07:52 37.99861 58.31512 3027 ft 156 kts 300°
2026-05-01 07:53 38.01059 58.28800 3634 ft 184 kts 299°
2026-05-01 07:53 38.01677 58.27376 4138 ft 185 kts 300°
2026-05-01 07:53 38.02452 58.26080 4622 ft 186 kts 316°
2026-05-01 07:53 38.03481 58.25090 5109 ft 186 kts 331°
2026-05-01 07:54 38.05986 58.24301 6016 ft 189 kts
2026-05-01 07:55 38.09498 58.26429 7315 ft 196 kts 50°
2026-05-01 07:55 38.10614 58.29595 8191 ft 199 kts 82°
2026-05-01 07:56 38.11251 58.34906 9465 ft 206 kts 82°
2026-05-01 07:56 38.11681 58.38551 10269 ft 211 kts 82°
2026-05-01 07:57 38.11900 58.40394 10662 ft 212 kts 82°
2026-05-01 07:57 38.12342 58.44118 11450 ft 215 kts 83°
2026-05-01 07:58 38.12786 58.47891 12229 ft 217 kts 83°
2026-05-01 07:58 38.13236 58.51710 13009 ft 220 kts 83°
2026-05-01 07:59 38.13687 58.55556 13795 ft 223 kts 83°
2026-05-01 07:59 38.14146 58.59477 14498 ft 226 kts 83°
2026-05-01 08:00 38.15078 58.67485 15865 ft 232 kts 83°
2026-05-01 08:01 38.15792 58.73642 16892 ft 237 kts 83°
2026-05-01 08:01 38.16032 58.75724 17253 ft 239 kts 83°
2026-05-01 08:01 38.16274 58.77817 17606 ft 240 kts 83°
2026-05-01 08:02 38.16760 58.82047 18291 ft 244 kts 82°
2026-05-01 08:02 38.17006 58.84185 18610 ft 245 kts 82°
2026-05-01 08:03 38.17391 58.88508 19224 ft 247 kts 85°
2026-05-01 08:03 38.17588 58.90685 19599 ft 248 kts 84°
2026-05-01 08:03 38.17991 58.95021 20356 ft 250 kts 84°
2026-05-01 08:04 38.18393 58.99433 21117 ft 252 kts 84°
2026-05-01 08:04 38.18799 59.03886 21885 ft 255 kts 84°
2026-05-01 08:05 38.19207 59.08383 22646 ft 257 kts 84°
2026-05-01 08:05 38.19411 59.10645 23031 ft 258 kts 84°
2026-05-01 08:05 38.19616 59.12922 23410 ft 260 kts 84°
2026-05-01 08:06 38.20029 59.17512 24088 ft 263 kts 85°
2026-05-01 08:06 38.20374 59.21377 24583 ft 266 kts 85°
2026-05-01 08:07 38.20863 59.26862 25280 ft 271 kts 85°
2026-05-01 08:07 38.21288 59.31661 25873 ft 275 kts 85°
2026-05-01 08:08 38.21502 59.34086 26167 ft 277 kts 85°
2026-05-01 08:08 38.21864 59.38194 26663 ft 280 kts 85°
2026-05-01 08:09 38.22296 59.43124 27245 ft 284 kts 86°
2026-05-01 08:09 38.22515 59.45633 27536 ft 286 kts 86°
2026-05-01 08:09 38.22735 59.48160 27833 ft 288 kts 86°
2026-05-01 08:10 38.23178 59.53265 28404 ft 292 kts 86°
2026-05-01 08:10 38.23624 59.58439 28951 ft 296 kts 86°
2026-05-01 08:11 38.24075 59.63684 29471 ft 300 kts 86°
2026-05-01 08:11 38.24528 59.68995 29960 ft 304 kts 86°
2026-05-01 08:12 38.24984 59.74364 30410 ft 307 kts 86°
2026-05-01 08:12 38.25213 59.77069 30588 ft 308 kts 86°
2026-05-01 08:12 38.25672 59.82520 30950 ft 311 kts 86°
2026-05-01 08:13 38.25902 59.85266 31118 ft 313 kts 86°
2026-05-01 08:13 38.26606 59.93741 31180 ft 329 kts 87°
2026-05-01 08:14 38.27091 59.99595 31188 ft 336 kts 87°
2026-05-01 08:14 38.27577 60.05502 31188 ft 340 kts 87°
2026-05-01 08:15 38.28314 60.14539 31189 ft 344 kts 87°
2026-05-01 08:16 38.28806 60.20603 31184 ft 345 kts 87°
2026-05-01 08:16 38.29295 60.26681 31177 ft 345 kts 87°
2026-05-01 08:17 38.29781 60.32767 31181 ft 346 kts 87°
2026-05-01 08:17 38.30265 60.38863 31172 ft 346 kts 87°
2026-05-01 08:18 38.30743 60.44927 31168 ft 346 kts 87°
2026-05-01 08:19 38.31696 60.57130 31162 ft 346 kts 87°
2026-05-01 08:19 38.32167 60.63235 31159 ft 346 kts 87°
2026-05-01 08:20 38.32637 60.69353 31156 ft 346 kts 87°
2026-05-01 08:20 38.33103 60.75460 31160 ft 346 kts 88°
2026-05-01 08:21 38.33565 60.81571 31159 ft 346 kts 88°
2026-05-01 08:21 38.34021 60.87637 31156 ft 346 kts 88°
2026-05-01 08:22 38.34477 60.93744 31157 ft 346 kts 88°
2026-05-01 08:22 38.34929 60.99847 31157 ft 346 kts 88°
2026-05-01 08:23 38.35378 61.05948 31156 ft 346 kts 88°
2026-05-01 08:23 38.35824 61.12045 31159 ft 346 kts 88°
2026-05-01 08:24 38.36266 61.18144 31156 ft 345 kts 88°
2026-05-01 08:24 38.36704 61.24233 31158 ft 345 kts 88°
2026-05-01 08:25 38.37134 61.30249 31157 ft 345 kts 88°
2026-05-01 08:25 38.37573 61.36431 31155 ft 345 kts 88°
2026-05-01 08:26 38.38002 61.42517 31157 ft 345 kts 88°
2026-05-01 08:26 38.38427 61.48600 31156 ft 345 kts 88°
2026-05-01 08:27 38.38847 61.54653 31157 ft 345 kts 88°
2026-05-01 08:27 38.39267 61.60743 31159 ft 344 kts 89°
2026-05-01 08:28 38.39682 61.66826 31160 ft 345 kts 89°
2026-05-01 08:28 38.40095 61.72918 31159 ft 345 kts 89°
2026-05-01 08:29 38.40505 61.79012 31161 ft 345 kts 89°
2026-05-01 08:29 38.40912 61.85100 31161 ft 345 kts 89°
2026-05-01 08:30 38.41315 61.91191 31161 ft 345 kts 89°
2026-05-01 08:30 38.41715 61.97278 31163 ft 345 kts 89°
2026-05-01 08:31 38.42112 62.03373 31161 ft 345 kts 89°
2026-05-01 08:31 38.42503 62.09425 31160 ft 345 kts 89°
2026-05-01 08:32 38.42894 62.15518 31157 ft 344 kts 89°
2026-05-01 08:32 38.43282 62.21609 31156 ft 344 kts 89°
2026-05-01 08:33 38.43663 62.27656 31154 ft 344 kts 89°
2026-05-01 08:33 38.44046 62.33777 31151 ft 344 kts 89°
2026-05-01 08:34 38.44423 62.39851 31150 ft 344 kts 89°
2026-05-01 08:34 38.44797 62.45938 31149 ft 344 kts 89°
2026-05-01 08:35 38.45167 62.51987 31147 ft 344 kts 89°
2026-05-01 08:35 38.45533 62.58060 31147 ft 343 kts 89°
2026-05-01 08:36 38.45897 62.64134 31142 ft 343 kts 90°
2026-05-01 08:36 38.46258 62.70203 31144 ft 343 kts 90°
2026-05-01 08:37 38.46615 62.76274 31138 ft 342 kts 90°
2026-05-01 08:37 38.46969 62.82333 31137 ft 342 kts 90°
2026-05-01 08:38 38.47317 62.88350 31135 ft 341 kts 90°
2026-05-01 08:38 38.47664 62.94391 31135 ft 341 kts 90°
2026-05-01 08:39 38.48007 63.00428 31134 ft 340 kts 90°
2026-05-01 08:39 38.48346 63.06442 31127 ft 339 kts 90°
2026-05-01 08:40 38.48847 63.15453 31124 ft 338 kts 90°
2026-05-01 08:40 38.49177 63.21445 31124 ft 338 kts 90°
2026-05-01 08:41 38.49501 63.27382 31123 ft 337 kts 91°
2026-05-01 08:41 38.49823 63.33354 31126 ft 337 kts 91°
2026-05-01 08:42 38.50142 63.39315 31117 ft 336 kts 91°
2026-05-01 08:42 38.50457 63.45271 31118 ft 336 kts 91°
2026-05-01 08:43 38.50769 63.51214 31118 ft 335 kts 91°
2026-05-01 08:43 38.51078 63.57152 31117 ft 335 kts 91°
2026-05-01 08:44 38.51382 63.63068 31118 ft 334 kts 91°
2026-05-01 08:44 38.51683 63.68982 31115 ft 333 kts 91°
2026-05-01 08:45 38.51981 63.74893 31120 ft 333 kts 91°
2026-05-01 08:45 38.52277 63.80803 31118 ft 334 kts 91°
2026-05-01 08:46 38.52568 63.86719 31117 ft 334 kts 91°
2026-05-01 08:46 38.52858 63.92648 31112 ft 334 kts 91°
2026-05-01 08:47 38.53144 63.98545 31116 ft 335 kts 91°
2026-05-01 08:47 38.53428 64.04486 31117 ft 335 kts 91°
2026-05-01 08:48 38.53710 64.10424 31114 ft 335 kts 91°
2026-05-01 08:48 38.53988 64.16364 31112 ft 335 kts 91°
2026-05-01 08:49 38.54264 64.22312 31111 ft 335 kts 91°
2026-05-01 08:49 38.54537 64.28257 31109 ft 335 kts 91°
2026-05-01 08:50 38.54806 64.34204 31107 ft 335 kts 91°
2026-05-01 08:50 38.55073 64.40148 31102 ft 335 kts 91°
2026-05-01 08:51 38.55335 64.46051 31101 ft 335 kts 91°
2026-05-01 08:51 38.55595 64.51998 31097 ft 335 kts 91°
2026-05-01 08:52 38.55853 64.57932 31091 ft 334 kts 91°
2026-05-01 08:52 38.56107 64.63865 31090 ft 334 kts 91°
2026-05-01 08:53 38.56357 64.69796 31088 ft 334 kts 91°
2026-05-01 08:53 38.56563 64.74720 31083 ft 334 kts 91°
2026-05-01 08:54 38.56808 64.80634 31080 ft 333 kts 91°
2026-05-01 08:54 38.57050 64.86553 31077 ft 333 kts 91°
2026-05-01 08:55 38.57288 64.92462 31079 ft 332 kts 91°
2026-05-01 08:55 38.57522 64.98327 31070 ft 332 kts 91°
2026-05-01 08:56 38.57754 65.04217 31071 ft 332 kts 91°
2026-05-01 08:56 38.57982 65.10103 31069 ft 331 kts 91°
2026-05-01 08:57 38.58208 65.15985 31065 ft 331 kts 91°
2026-05-01 08:57 38.58430 65.21860 31062 ft 330 kts 91°
2026-05-01 08:58 38.58649 65.27721 31058 ft 330 kts 91°
2026-05-01 08:58 38.58865 65.33573 31055 ft 329 kts 91°
2026-05-01 08:59 38.59076 65.39385 31051 ft 329 kts 91°
2026-05-01 08:59 38.59285 65.45220 31052 ft 329 kts 91°
2026-05-01 09:00 38.59491 65.51056 31056 ft 328 kts 92°
2026-05-01 09:00 38.59695 65.56880 31063 ft 328 kts 92°
2026-05-01 09:01 38.59895 65.62699 31064 ft 328 kts 92°
2026-05-01 09:01 38.60092 65.68513 31068 ft 327 kts 92°
2026-05-01 09:02 38.60285 65.74320 31071 ft 327 kts 92°
2026-05-01 09:02 38.60477 65.80135 31072 ft 327 kts 92°
2026-05-01 09:03 38.60663 65.85909 31078 ft 327 kts 92°
2026-05-01 09:03 38.60849 65.91723 31063 ft 327 kts 92°
2026-05-01 09:04 38.61030 65.97515 31062 ft 326 kts 93°
2026-05-01 09:04 38.61210 66.03314 31052 ft 325 kts 93°
2026-05-01 09:05 38.61385 66.09096 31045 ft 325 kts 93°
2026-05-01 09:05 38.61558 66.14866 31038 ft 325 kts 92°
2026-05-01 09:06 38.61727 66.20640 31034 ft 325 kts 92°
2026-05-01 09:06 38.61733 66.26388 31040 ft 322 kts 97°
2026-05-01 09:07 38.61542 66.32083 31034 ft 322 kts 97°
2026-05-01 09:07 38.61348 66.37820 31035 ft 322 kts 97°
2026-05-01 09:08 38.61149 66.43547 31036 ft 322 kts 97°
2026-05-01 09:08 38.60948 66.49280 31039 ft 323 kts 97°
2026-05-01 09:09 38.60743 66.55015 31042 ft 323 kts 97°
2026-05-01 09:09 38.60539 66.60709 31043 ft 323 kts 97°
2026-05-01 09:10 38.60329 66.66441 31046 ft 323 kts 97°
2026-05-01 09:10 38.60117 66.72180 31051 ft 323 kts 97°
2026-05-01 09:11 38.59901 66.77913 31052 ft 323 kts 96°
2026-05-01 09:11 38.59684 66.83643 31057 ft 323 kts 96°
2026-05-01 09:12 38.59464 66.89371 31062 ft 323 kts 96°
2026-05-01 09:12 38.59240 66.95107 31066 ft 323 kts 96°
2026-05-01 09:13 38.59015 67.00832 31067 ft 322 kts 96°
2026-05-01 09:13 38.58787 67.06536 31071 ft 321 kts 96°
2026-05-01 09:14 38.58558 67.12209 31075 ft 322 kts 96°
2026-05-01 09:14 38.58324 67.17923 31072 ft 322 kts 96°
2026-05-01 09:15 38.58088 67.23632 31075 ft 322 kts 96°
2026-05-01 09:15 38.57844 67.29356 31072 ft 323 kts 96°
2026-05-01 09:16 38.57606 67.35084 31069 ft 323 kts 96°
2026-05-01 09:17 38.57234 67.43674 31070 ft 321 kts 96°
2026-05-01 09:17 38.56859 67.52238 31051 ft 322 kts 96°
2026-05-01 09:18 38.56478 67.60790 31036 ft 323 kts 96°
2026-05-01 09:19 38.56088 67.69399 31019 ft 324 kts 96°
2026-05-01 09:20 38.55695 67.77998 31011 ft 321 kts 96°
2026-05-01 09:21 38.55160 67.89432 30996 ft 323 kts 97°
2026-05-01 09:21 38.54751 67.98053 30986 ft 325 kts 97°
2026-05-01 09:22 38.54276 68.09550 30993 ft 326 kts 94°
2026-05-01 09:23 38.54136 68.18249 30991 ft 326 kts 94°
2026-05-01 09:24 38.53989 68.26956 30990 ft 327 kts 94°
2026-05-01 09:25 38.53780 68.38582 30993 ft 327 kts 95°
2026-05-01 09:26 38.53852 68.47320 30999 ft 328 kts 92°
2026-05-01 09:26 38.53939 68.56070 31003 ft 329 kts 92°
2026-05-01 09:27 38.54020 68.64792 31010 ft 329 kts 92°
2026-05-01 09:28 38.54072 68.70647 31012 ft 329 kts 92°
2026-05-01 09:28 38.54120 68.76496 31012 ft 329 kts 92°
2026-05-01 09:29 38.54185 68.85280 31012 ft 329 kts 92°
2026-05-01 09:30 38.54234 68.94067 31012 ft 330 kts 92°
2026-05-01 09:30 38.54277 69.02865 31013 ft 330 kts 92°
2026-05-01 09:31 38.54303 69.08728 31010 ft 330 kts 92°
2026-05-01 09:32 38.54337 69.17495 31008 ft 330 kts 92°
2026-05-01 09:32 38.54363 69.26308 31007 ft 331 kts 92°
2026-05-01 09:33 38.54392 69.32185 31006 ft 331 kts 90°
2026-05-01 09:34 38.54629 69.40991 31007 ft 330 kts 90°
2026-05-01 09:34 38.54856 69.49784 31007 ft 330 kts 90°
2026-05-01 09:35 38.55074 69.58561 31010 ft 329 kts 90°
2026-05-01 09:36 38.55216 69.64409 31007 ft 329 kts 90°
2026-05-01 09:36 38.55356 69.70248 31008 ft 329 kts 90°
2026-05-01 09:37 38.55491 69.76088 31009 ft 329 kts 90°
2026-05-01 09:37 38.55690 69.84822 31014 ft 328 kts 90°
2026-05-01 09:38 38.55881 69.93556 31013 ft 328 kts 90°
2026-05-01 09:39 38.56066 70.02251 31020 ft 328 kts 90°
2026-05-01 09:39 38.56186 70.08077 31027 ft 328 kts 90°
2026-05-01 09:40 38.56342 70.15874 31038 ft 328 kts 90°
2026-05-01 09:41 38.56455 70.21666 31042 ft 328 kts 90°
2026-05-01 09:41 38.56619 70.30396 31051 ft 328 kts 90°
2026-05-01 09:42 38.56725 70.36228 31053 ft 328 kts 90°
2026-05-01 09:43 38.56929 70.47908 31061 ft 329 kts 90°
2026-05-01 09:43 38.57027 70.53754 31058 ft 329 kts 90°
2026-05-01 09:44 38.57168 70.62530 31060 ft 329 kts 89°
2026-05-01 09:45 38.57258 70.68384 31062 ft 329 kts 89°
2026-05-01 09:45 38.57387 70.77170 31063 ft 330 kts 89°
2026-05-01 09:46 38.57474 70.83020 31063 ft 331 kts 89°
2026-05-01 09:46 38.57553 70.88904 31067 ft 332 kts 89°
2026-05-01 09:47 38.57629 70.94795 31063 ft 331 kts 89°
2026-05-01 09:47 38.57706 71.00671 31066 ft 331 kts 89°
2026-05-01 09:48 38.57776 71.06542 31070 ft 330 kts 89°
2026-05-01 09:48 38.57846 71.12413 31074 ft 330 kts 89°
2026-05-01 09:49 38.57911 71.18286 31083 ft 331 kts 89°
2026-05-01 09:49 38.57974 71.24172 31086 ft 330 kts 89°
2026-05-01 09:50 38.58034 71.29995 31095 ft 329 kts 89°
2026-05-01 09:50 38.58091 71.35853 31103 ft 329 kts 89°
2026-05-01 09:51 38.58145 71.41705 31106 ft 329 kts 90°
2026-05-01 09:51 38.58195 71.47548 31112 ft 329 kts 90°
2026-05-01 09:52 38.58243 71.53392 31114 ft 329 kts 90°
2026-05-01 09:52 38.58291 71.59236 31121 ft 328 kts 90°
2026-05-01 09:53 38.58036 71.65023 31140 ft 327 kts 103°
2026-05-01 09:53 38.57059 71.70698 31142 ft 327 kts 103°
2026-05-01 09:54 38.56099 71.76343 31142 ft 327 kts 103°
2026-05-01 09:54 38.55120 71.82028 31138 ft 328 kts 103°
2026-05-01 09:55 38.54142 71.87713 31146 ft 327 kts 103°
2026-05-01 09:55 38.53162 71.93389 31138 ft 328 kts 103°
2026-05-01 09:56 38.52173 71.99096 31138 ft 328 kts 103°
2026-05-01 09:56 38.51181 72.04796 31135 ft 329 kts 103°
2026-05-01 09:57 38.50196 72.10452 31140 ft 327 kts 103°
2026-05-01 09:57 38.49203 72.16127 31133 ft 327 kts 104°
2026-05-01 09:58 38.48211 72.21797 31125 ft 327 kts 104°
2026-05-01 09:58 38.47214 72.27449 31126 ft 326 kts 104°
2026-05-01 09:59 38.46222 72.33088 31119 ft 326 kts 104°
2026-05-01 09:59 38.45222 72.38727 31113 ft 325 kts 104°
2026-05-01 10:00 38.44224 72.44350 31100 ft 325 kts 104°
2026-05-01 10:00 38.43229 72.49948 31092 ft 325 kts 104°
2026-05-01 10:01 38.42226 72.55557 31085 ft 324 kts 105°
2026-05-01 10:01 38.41226 72.61144 31078 ft 323 kts 105°
2026-05-01 10:02 38.40225 72.66719 31070 ft 322 kts 105°
2026-05-01 10:02 38.39224 72.72277 31067 ft 321 kts 105°
2026-05-01 10:03 38.38221 72.77828 31061 ft 321 kts 105°
2026-05-01 10:03 38.37216 72.83375 31060 ft 321 kts 105°
2026-05-01 10:04 38.36210 72.88918 31054 ft 321 kts 105°
2026-05-01 10:04 38.35204 72.94436 31057 ft 319 kts 105°
2026-05-01 10:05 38.34199 72.99939 31064 ft 319 kts 105°
2026-05-01 10:05 38.33192 73.05437 31064 ft 318 kts 105°
2026-05-01 10:06 38.32182 73.10930 31062 ft 318 kts 105°
2026-05-01 10:06 38.31178 73.16378 31064 ft 319 kts 105°
2026-05-01 10:07 38.30160 73.21889 31070 ft 320 kts 105°
2026-05-01 10:07 38.29136 73.27415 31069 ft 321 kts 105°
2026-05-01 10:08 38.27587 73.35744 31071 ft 323 kts 104°
2026-05-01 10:09 38.26547 73.41319 31068 ft 324 kts 104°
2026-05-01 10:09 38.25503 73.46899 31072 ft 324 kts 104°
2026-05-01 10:10 38.24456 73.52474 31065 ft 324 kts 104°
2026-05-01 10:10 38.22879 73.60848 31057 ft 325 kts 105°
2026-05-01 10:11 38.21823 73.66440 31048 ft 325 kts 105°
2026-05-01 10:11 38.20762 73.72032 31044 ft 325 kts 105°
2026-05-01 10:12 38.19877 73.76695 31037 ft 326 kts 105°
2026-05-01 10:13 38.18104 73.85993 31019 ft 326 kts 105°
2026-05-01 10:13 38.17047 73.91519 31014 ft 326 kts 105°
2026-05-01 10:14 38.15435 73.99915 31007 ft 326 kts 105°
2026-05-01 10:14 38.14356 74.05510 31006 ft 326 kts 106°
2026-05-01 10:15 38.13275 74.11106 31006 ft 326 kts 106°
2026-05-01 10:15 38.12191 74.16699 30999 ft 326 kts 106°
2026-05-01 10:16 38.11106 74.22290 31006 ft 326 kts 106°
2026-05-01 10:17 38.09476 74.30643 31004 ft 326 kts 106°
2026-05-01 10:17 38.07833 74.39037 31010 ft 326 kts 107°
2026-05-01 10:18 38.06188 74.47408 31021 ft 326 kts 107°
2026-05-01 10:19 38.05090 74.52981 31027 ft 325 kts 107°
2026-05-01 10:19 38.03990 74.58541 31039 ft 325 kts 107°
2026-05-01 10:20 38.02337 74.66870 31052 ft 324 kts 107°
2026-05-01 10:20 38.01234 74.72417 31063 ft 324 kts 107°
2026-05-01 10:21 37.99574 74.80728 31079 ft 324 kts 107°
2026-05-01 10:22 37.97136 74.88618 31116 ft 319 kts 128°
2026-05-01 10:22 37.94017 74.92551 31113 ft 315 kts 148°
2026-05-01 10:23 37.92126 74.93932 31114 ft 312 kts 158°
2026-05-01 10:23 37.86098 74.96902 31111 ft 311 kts 162°
2026-05-01 10:24 37.78641 75.00502 31108 ft 313 kts 162°
2026-05-01 10:25 37.70495 75.04432 31105 ft 314 kts 162°
2026-05-01 10:26 37.66449 75.06382 31105 ft 313 kts 162°
2026-05-01 10:27 37.58292 75.10304 31115 ft 314 kts 162°
2026-05-01 10:28 37.52154 75.13245 31117 ft 315 kts 162°
2026-05-01 10:28 37.46004 75.16191 31124 ft 315 kts 162°
2026-05-01 10:29 37.39760 75.18512 31146 ft 309 kts 182°
2026-05-01 10:30 37.35532 75.17732 31146 ft 307 kts 196°
2026-05-01 10:30 37.31342 75.16616 31144 ft 308 kts 193°
2026-05-01 10:31 37.22970 75.14583 31128 ft 307 kts 194°
2026-05-01 10:32 37.16673 75.13046 31126 ft 307 kts 194°
2026-05-01 10:33 37.08296 75.10999 31124 ft 306 kts 194°
2026-05-01 10:34 37.02024 75.09469 31117 ft 306 kts 194°
2026-05-01 10:34 36.97839 75.08450 31111 ft 306 kts 194°
2026-05-01 10:35 36.91594 75.06929 31108 ft 305 kts 194°
2026-05-01 10:35 36.87410 75.05914 31099 ft 307 kts 194°
2026-05-01 10:36 36.81124 75.04389 31090 ft 307 kts 194°
2026-05-01 10:37 36.76930 75.03373 31090 ft 307 kts 194°
2026-05-01 10:37 36.70635 75.01851 31087 ft 307 kts 194°
2026-05-01 10:38 36.66437 75.00834 31082 ft 307 kts 194°
2026-05-01 10:38 36.62251 74.99827 31082 ft 306 kts 194°
2026-05-01 10:39 36.58061 74.98816 31078 ft 307 kts 194°
2026-05-01 10:39 36.53872 74.97808 31078 ft 306 kts 194°
2026-05-01 10:40 36.49679 74.96798 31080 ft 307 kts 194°
2026-05-01 10:40 36.45484 74.95792 31080 ft 307 kts 194°
2026-05-01 10:41 36.41309 74.94789 31085 ft 307 kts 194°
2026-05-01 10:42 36.34995 74.93277 31091 ft 308 kts 194°
2026-05-01 10:42 36.30783 74.92268 31093 ft 308 kts 194°
2026-05-01 10:43 36.26564 74.91261 31090 ft 309 kts 194°
2026-05-01 10:43 36.22344 74.90253 31095 ft 309 kts 194°
2026-05-01 10:44 36.18123 74.89246 31091 ft 309 kts 194°
2026-05-01 10:44 36.13888 74.88237 31091 ft 310 kts 194°
2026-05-01 10:45 36.09687 74.87238 31087 ft 309 kts 194°
2026-05-01 10:45 36.05478 74.86238 31078 ft 308 kts 194°
2026-05-01 10:46 36.01266 74.85236 31078 ft 310 kts 194°
2026-05-01 10:46 35.97011 74.84227 31071 ft 312 kts 194°
2026-05-01 10:47 35.92753 74.83216 31060 ft 310 kts 194°
2026-05-01 10:47 35.88510 74.82213 31053 ft 310 kts 194°
2026-05-01 10:48 35.84268 74.81212 31048 ft 310 kts 194°
2026-05-01 10:48 35.79965 74.80622 31030 ft 314 kts 180°
2026-05-01 10:49 35.75675 74.81789 30837 ft 325 kts 161°
2026-05-01 10:49 35.73641 74.83101 30430 ft 333 kts 150°
2026-05-01 10:49 35.71816 74.84864 29975 ft 335 kts 139°
2026-05-01 10:49 35.70274 74.87017 29513 ft 337 kts 128°
2026-05-01 10:50 35.69081 74.89468 29082 ft 340 kts 117°
2026-05-01 10:50 35.68255 74.92194 28644 ft 341 kts 108°
2026-05-01 10:50 35.67597 74.94998 28200 ft 341 kts 108°
2026-05-01 10:50 35.66916 74.97802 27753 ft 341 kts 108°
2026-05-01 10:51 35.66229 75.00605 27305 ft 342 kts 108°
2026-05-01 10:51 35.65550 75.03406 26859 ft 342 kts 108°
2026-05-01 10:51 35.64873 75.06217 26406 ft 343 kts 108°
2026-05-01 10:51 35.64192 75.09024 25955 ft 343 kts 108°
2026-05-01 10:52 35.63507 75.11837 25499 ft 343 kts 108°
2026-05-01 10:52 35.62821 75.14652 25093 ft 343 kts 108°
2026-05-01 10:52 35.62095 75.17442 24737 ft 343 kts 110°
2026-05-01 10:52 35.61337 75.20171 24812 ft 332 kts 108°
2026-05-01 10:53 35.60766 75.22853 24917 ft 326 kts 105°
2026-05-01 10:53 35.60217 75.25527 25025 ft 321 kts 107°
2026-05-01 10:53 35.59567 75.28149 24959 ft 323 kts 109°
2026-05-01 10:53 35.58817 75.30784 24752 ft 328 kts 115°
2026-05-01 10:54 35.57719 75.33246 24475 ft 332 kts 129°
2026-05-01 10:54 35.56025 75.35164 24160 ft 334 kts 145°
2026-05-01 10:54 35.54119 75.36838 23698 ft 341 kts 147°
2026-05-01 10:54 35.52159 75.38503 23058 ft 343 kts 147°
2026-05-01 10:55 35.50191 75.40174 22406 ft 344 kts 147°
2026-05-01 10:55 35.48234 75.41859 21768 ft 344 kts 146°
2026-05-01 10:55 35.46268 75.43551 21143 ft 345 kts 146°
2026-05-01 10:55 35.44303 75.45235 20533 ft 345 kts 147°
2026-05-01 10:56 35.42338 75.46913 19933 ft 344 kts 146°
2026-05-01 10:56 35.40383 75.48591 19348 ft 342 kts 146°
2026-05-01 10:56 35.38444 75.50256 18774 ft 339 kts 146°
2026-05-01 10:56 35.36546 75.51879 18188 ft 338 kts 145°
2026-05-01 10:57 35.34613 75.53531 17532 ft 337 kts 146°
2026-05-01 10:57 35.32821 75.55349 16852 ft 335 kts 133°
2026-05-01 10:57 35.31507 75.57637 15952 ft 315 kts 119°
2026-05-01 10:57 35.30665 75.59989 15083 ft 289 kts 109°
2026-05-01 10:58 35.30182 75.62280 14183 ft 271 kts 98°
2026-05-01 10:58 35.29976 75.64514 13517 ft 256 kts 96°
2026-05-01 10:58 35.29958 75.66563 13238 ft 229 kts 85°
2026-05-01 10:58 35.30155 75.68422 12798 ft 216 kts 79°
2026-05-01 10:59 35.30453 75.70278 12118 ft 235 kts 82°
2026-05-01 10:59 35.30825 75.72173 12288 ft 208 kts 62°
2026-05-01 10:59 35.31681 75.73486 12729 ft 198 kts 39°
2026-05-01 10:59 35.32925 75.74300 12677 ft 210 kts 19°
2026-05-01 11:00 35.34390 75.74773 12458 ft 224 kts
2026-05-01 11:00 35.35981 75.74792 12110 ft 235 kts 354°
2026-05-01 11:00 35.37590 75.74343 11845 ft 239 kts 340°
2026-05-01 11:00 35.38771 75.73123 12313 ft 211 kts 299°
2026-05-01 11:01 35.39065 75.71406 12363 ft 206 kts 263°
2026-05-01 11:01 35.38528 75.69844 11627 ft 200 kts 238°
2026-05-01 11:01 35.37702 75.68505 11053 ft 191 kts 231°
2026-05-01 11:01 35.36878 75.67323 10654 ft 177 kts 230°
2026-05-01 11:02 35.36072 75.66168 10179 ft 177 kts 229°
2026-05-01 11:02 35.35217 75.65129 9849 ft 168 kts 225°
2026-05-01 11:02 35.34384 75.64190 9505 ft 159 kts 224°
2026-05-01 11:02 35.33581 75.63261 9147 ft 159 kts 224°
2026-05-01 11:03 35.32765 75.62372 8858 ft 156 kts 225°
2026-05-01 11:03 35.31995 75.61478 8604 ft 151 kts 226°
2026-05-01 11:03 35.31090 75.60930 8626 ft 148 kts 192°
2026-05-01 11:03 35.30043 75.60634 8711 ft 159 kts 200°
2026-05-01 11:04 35.29157 75.59913 8983 ft 151 kts 241°
2026-05-01 11:04 35.29213 75.58715 9121 ft 144 kts 306°
2026-05-01 11:04 35.29894 75.57736 8728 ft 158 kts 313°
2026-05-01 11:04 35.30573 75.56746 8357 ft 149 kts 307°
2026-05-01 11:05 35.31326 75.55868 7929 ft 150 kts 324°
2026-05-01 11:05 35.32192 75.55183 7580 ft 147 kts 327°
2026-05-01 11:05 35.33010 75.54540 7343 ft 129 kts 324°
2026-05-01 11:05 35.33673 75.54004 7319 ft 90 kts 328°
2026-05-01 11:06 35.34004 75.53744 7313 ft 48 kts 326°
2026-05-01 11:06 35.34280 75.53525 7315 ft 47 kts 327°
2026-05-01 11:06 35.34556 75.53321 7306 ft 46 kts 335°
2026-05-01 11:07 35.34991 75.53249 7306 ft 14 kts 43°
2026-05-01 11:07 35.34957 75.53340 7307 ft 15 kts 147°
2026-05-01 11:07 35.34866 75.53412 7309 ft 16 kts 146°
2026-05-01 11:07 35.34765 75.53492 7310 ft 18 kts 147°
2026-05-01 11:08 35.34658 75.53577 7310 ft 19 kts 148°
2026-05-01 11:08 35.34547 75.53665 7316 ft 20 kts 146°
2026-05-01 11:08 35.34307 75.53855 7317 ft 23 kts 146°
2026-05-01 11:09 35.34158 75.53973 7326 ft 28 kts 147°
2026-05-01 11:09 35.33976 75.54117 7322 ft 34 kts 147°
2026-05-01 11:09 35.33779 75.54274 7322 ft 34 kts 146°
2026-05-01 11:10 35.33423 75.54556 7333 ft 19 kts 147°
2026-05-01 11:10 35.33333 75.54521 7338 ft 17 kts 236°
2026-05-01 11:10 35.33264 75.54390 7334 ft 20 kts 236°
2026-05-01 11:10 35.33184 75.54245 7328 ft 16 kts 236°
2026-05-01 11:11 35.33132 75.54147 7331 ft 8 kts 237°
2026-05-01 11:11 35.33095 75.54136 7331 ft 6 kts 147°
2026-05-01 11:11 35.33067 75.54158 7332 ft 2 kts 147°
2026-05-01 11:11 35.33066 75.54158 7332 ft 0 kts 147°